Time,TemperatureF,DewpointF,PressureIn,WindDirection,WindDirectionDegrees,WindSpeedMPH,WindSpeedGustMPH,Humidity,HourlyPrecipIn,Conditions,Clouds,dailyrainin,SolarRadiationWatts/m^2,SoftwareType,DateUTC
2013-07-06 00:02:00,75.0,69.0,-100.00,ESE,109,3.0,7.0,82,0.00,,,0.00,0.000000,,2013-07-06 05:02:00,
2013-07-06 00:34:00,74.0,70.0,-100.00,East,79,3.0,5.0,87,0.00,,,0.00,0.000000,,2013-07-06 05:34:00,
2013-07-06 00:43:00,74.0,70.0,-100.00,East,79,3.0,5.0,87,0.00,,,0.00,0.000000,,2013-07-06 05:43:00,
2013-07-06 00:53:00,74.0,70.0,-100.00,East,79,3.0,5.0,87,0.00,,,0.00,0.000000,,2013-07-06 05:53:00,
2013-07-06 01:02:00,74.0,70.0,-100.00,East,79,3.0,5.0,87,0.00,,,0.00,0.000000,,2013-07-06 06:02:00,
2013-07-06 01:34:00,72.0,69.0,-100.00,East,99,4.0,6.0,90,0.00,,,0.00,0.000000,,2013-07-06 06:34:00,
2013-07-06 01:43:00,72.0,69.0,-100.00,East,99,4.0,6.0,90,0.00,,,0.00,0.000000,,2013-07-06 06:43:00,
2013-07-06 01:53:00,72.0,69.0,-100.00,East,99,4.0,6.0,90,0.00,,,0.00,0.000000,,2013-07-06 06:53:00,
2013-07-06 02:02:00,72.0,69.0,-100.00,East,99,4.0,6.0,90,0.00,,,0.00,0.000000,,2013-07-06 07:02:00,
2013-07-06 02:33:00,72.0,70.0,-100.00,East,87,4.0,7.0,93,0.00,,,0.00,0.000000,,2013-07-06 07:33:00,
2013-07-06 02:44:00,72.0,70.0,-100.00,East,87,4.0,7.0,93,0.00,,,0.00,0.000000,,2013-07-06 07:44:00,
2013-07-06 02:52:00,72.0,70.0,-100.00,East,87,4.0,7.0,93,0.00,,,0.00,0.000000,,2013-07-06 07:52:00,
2013-07-06 03:02:00,72.0,70.0,-100.00,East,87,4.0,7.0,93,0.00,,,0.00,0.000000,,2013-07-06 08:02:00,
2013-07-06 03:34:00,72.0,70.0,-100.00,East,79,4.0,7.0,94,0.00,,,0.00,0.000000,,2013-07-06 08:34:00,
2013-07-06 03:43:00,72.0,70.0,-100.00,East,79,4.0,7.0,94,0.00,,,0.00,0.000000,,2013-07-06 08:43:00,
2013-07-06 03:54:00,72.0,70.0,-100.00,East,79,4.0,7.0,94,0.00,,,0.00,0.000000,,2013-07-06 08:54:00,
2013-07-06 04:02:00,72.0,70.0,-100.00,East,79,4.0,7.0,94,0.00,,,0.00,0.000000,,2013-07-06 09:02:00,
2013-07-06 04:34:00,71.0,69.0,-100.00,ENE,66,3.0,6.0,95,0.00,,,0.00,0.000000,,2013-07-06 09:34:00,
2013-07-06 04:43:00,71.0,69.0,-100.00,ENE,66,3.0,6.0,95,0.00,,,0.00,0.000000,,2013-07-06 09:43:00,
2013-07-06 04:53:00,71.0,69.0,-100.00,ENE,66,3.0,6.0,95,0.00,,,0.00,0.000000,,2013-07-06 09:53:00,
2013-07-06 05:02:00,71.0,69.0,-100.00,ENE,66,3.0,6.0,95,0.00,,,0.00,0.000000,,2013-07-06 10:02:00,
2013-07-06 05:33:00,70.0,69.0,-100.00,ENE,71,4.0,6.0,96,0.00,,,0.00,0.000000,,2013-07-06 10:33:00,
2013-07-06 05:43:00,70.0,69.0,-100.00,ENE,71,4.0,6.0,96,0.00,,,0.00,0.000000,,2013-07-06 10:43:00,
2013-07-06 05:53:00,70.0,69.0,-100.00,ENE,71,4.0,6.0,96,0.00,,,0.00,0.000000,,2013-07-06 10:53:00,
2013-07-06 06:01:00,70.0,69.0,-100.00,ENE,71,4.0,6.0,96,0.00,,,0.00,0.000000,,2013-07-06 11:01:00,
2013-07-06 06:33:00,70.0,69.0,-100.00,ENE,68,4.0,7.0,96,0.00,,,0.00,0.000000,,2013-07-06 11:33:00,
2013-07-06 06:43:00,70.0,69.0,-100.00,ENE,68,4.0,7.0,96,0.00,,,0.00,0.000000,,2013-07-06 11:43:00,
2013-07-06 06:53:00,70.0,69.0,-100.00,ENE,68,4.0,7.0,96,0.00,,,0.00,0.000000,,2013-07-06 11:53:00,
2013-07-06 07:01:00,70.0,69.0,-100.00,ENE,68,4.0,7.0,96,0.00,,,0.00,0.000000,,2013-07-06 12:01:00,
2013-07-06 07:33:00,70.0,69.0,-100.00,ENE,71,4.0,7.0,96,0.00,,,0.00,9.000000,,2013-07-06 12:33:00,
2013-07-06 07:43:00,70.0,69.0,-100.00,ENE,71,4.0,7.0,96,0.00,,,0.00,9.000000,,2013-07-06 12:43:00,
2013-07-06 07:52:00,70.0,69.0,-100.00,ENE,71,4.0,7.0,96,0.00,,,0.00,9.000000,,2013-07-06 12:52:00,
2013-07-06 08:01:00,70.0,69.0,-100.00,ENE,71,4.0,7.0,96,0.00,,,0.00,9.000000,,2013-07-06 13:01:00,
2013-07-06 08:33:00,72.0,71.0,-100.00,East,90,5.0,8.0,96,0.00,,,0.00,31.000000,,2013-07-06 13:33:00,
2013-07-06 08:43:00,72.0,71.0,-100.00,East,90,5.0,8.0,96,0.00,,,0.00,31.000000,,2013-07-06 13:43:00,
2013-07-06 08:52:00,72.0,71.0,-100.00,East,90,5.0,8.0,96,0.00,,,0.00,31.000000,,2013-07-06 13:52:00,
2013-07-06 09:02:00,72.0,71.0,-100.00,East,90,5.0,8.0,96,0.00,,,0.00,31.000000,,2013-07-06 14:02:00,
2013-07-06 09:34:00,76.0,72.0,-100.00,ESE,120,4.0,9.0,88,0.00,,,0.00,50.000000,,2013-07-06 14:34:00,
2013-07-06 09:42:00,76.0,72.0,-100.00,ESE,120,4.0,9.0,88,0.00,,,0.00,50.000000,,2013-07-06 14:42:00,
2013-07-06 09:53:00,76.0,72.0,-100.00,ESE,120,4.0,9.0,88,0.00,,,0.00,50.000000,,2013-07-06 14:53:00,
2013-07-06 10:02:00,76.0,72.0,-100.00,ESE,120,4.0,9.0,88,0.00,,,0.00,50.000000,,2013-07-06 15:02:00,
2013-07-06 10:05:00,84.0,74.0,-100.00,ESE,108,5.0,8.0,73,0.00,,,0.00,485.000000,,2013-07-06 15:05:00,
2013-07-06 10:34:00,84.0,74.0,-100.00,ESE,108,5.0,8.0,73,0.00,,,0.00,485.000000,,2013-07-06 15:34:00,
2013-07-06 10:43:00,84.0,74.0,-100.00,ESE,108,5.0,8.0,73,0.00,,,0.00,485.000000,,2013-07-06 15:43:00,
2013-07-06 10:53:00,84.0,74.0,-100.00,ESE,108,5.0,8.0,73,0.00,,,0.00,485.000000,,2013-07-06 15:53:00,
2013-07-06 12:05:00,90.0,72.0,-100.00,ENE,75,6.0,12.0,56,0.00,,,0.00,821.000000,,2013-07-06 17:05:00,
2013-07-06 12:45:00,90.0,72.0,-100.00,ENE,75,6.0,12.0,56,0.00,,,0.00,821.000000,,2013-07-06 17:45:00,
2013-07-06 12:59:00,90.0,72.0,-100.00,ENE,75,6.0,12.0,56,0.00,,,0.00,821.000000,,2013-07-06 17:59:00,
2013-07-06 13:05:00,92.0,72.0,-100.00,ESE,111,5.0,12.0,52,0.00,,,0.00,833.000000,,2013-07-06 18:05:00,
2013-07-06 13:49:00,92.0,72.0,-100.00,ESE,111,5.0,12.0,52,0.00,,,0.00,833.000000,,2013-07-06 18:49:00,
2013-07-06 14:01:00,92.0,72.0,-100.00,ESE,111,5.0,12.0,52,0.00,,,0.00,833.000000,,2013-07-06 19:01:00,
2013-07-06 14:05:00,93.0,72.0,-100.00,East,100,7.0,13.0,51,0.00,,,0.00,827.000000,,2013-07-06 19:05:00,
2013-07-06 14:49:00,93.0,72.0,-100.00,East,100,7.0,13.0,51,0.00,,,0.00,827.000000,,2013-07-06 19:49:00,
2013-07-06 15:05:00,94.0,69.0,-100.00,ESE,106,6.0,15.0,45,0.00,,,0.00,856.000000,,2013-07-06 20:05:00,
2013-07-06 16:05:00,93.0,66.0,-100.00,East,87,6.0,14.0,42,0.00,,,0.00,629.000000,,2013-07-06 21:05:00,
2013-07-06 16:49:00,93.0,66.0,-100.00,East,87,6.0,14.0,42,0.00,,,0.00,629.000000,,2013-07-06 21:49:00,
2013-07-06 17:00:00,93.0,66.0,-100.00,East,87,6.0,14.0,42,0.00,,,0.00,629.000000,,2013-07-06 22:00:00,
2013-07-06 17:05:00,94.0,69.0,-100.00,SE,139,6.0,14.0,45,0.00,,,0.00,608.000000,,2013-07-06 22:05:00,
2013-07-06 18:05:00,93.0,70.0,-100.00,ESE,113,6.0,12.0,47,0.00,,,0.00,450.000000,,2013-07-06 23:05:00,
2013-07-06 18:51:00,93.0,70.0,-100.00,ESE,113,6.0,12.0,47,0.00,,,0.00,450.000000,,2013-07-06 23:51:00,
2013-07-06 18:59:00,93.0,70.0,-100.00,ESE,113,6.0,12.0,47,0.00,,,0.00,450.000000,,2013-07-06 23:59:00,
2013-07-06 19:05:00,89.0,68.0,-100.00,ESE,115,5.0,12.0,50,-99.99,,,0.00,237.000000,,2013-07-07 00:05:00,
2013-07-06 20:05:00,84.0,71.0,-100.00,SE,126,6.0,15.0,65,0.00,,,0.00,38.000000,,2013-07-07 01:05:00,
2013-07-06 20:59:00,84.0,71.0,-100.00,SE,126,6.0,15.0,65,0.00,,,0.00,38.000000,,2013-07-07 01:59:00,
2013-07-06 21:43:00,81.0,72.0,-100.00,SSE,154,5.0,11.0,75,0.00,,,0.00,2.000000,,2013-07-07 02:43:00,
2013-07-06 21:54:00,81.0,72.0,-100.00,SSE,154,5.0,11.0,75,0.00,,,0.00,2.000000,,2013-07-07 02:54:00,
2013-07-06 22:02:00,81.0,72.0,-100.00,SSE,154,5.0,11.0,75,0.00,,,0.00,2.000000,,2013-07-07 03:02:00,
2013-07-06 22:55:00,79.0,72.0,-100.00,SE,131,3.0,12.0,78,0.00,,,0.00,0.000000,,2013-07-07 03:55:00,
2013-07-06 23:01:00,79.0,72.0,-100.00,SE,131,3.0,12.0,78,0.00,,,0.00,0.000000,,2013-07-07 04:01:00,
2013-07-06 23:02:00,79.0,72.0,-100.00,SE,131,3.0,12.0,78,0.00,,,0.00,0.000000,,2013-07-07 04:02:00,
2013-07-06 23:31:00,77.0,72.0,-100.00,ENE,74,4.0,5.0,86,0.00,,,0.00,0.000000,,2013-07-07 04:31:00,
2013-07-06 23:41:00,77.0,72.0,-100.00,ENE,74,4.0,5.0,86,0.00,,,0.00,0.000000,,2013-07-07 04:41:00,
2013-07-06 23:51:00,77.0,72.0,-100.00,ENE,74,4.0,5.0,86,0.00,,,0.00,0.000000,,2013-07-07 04:51:00,